time, Switch, Flow(0), Analog(2)
yyyy/mm/dd HH:MM:SS.fff, True=FILTERED|False=TOTAL, L/min, V
2023/07/01 17:00:05.737, True, 1.013, 0.131838
2023/07/01 17:00:06.241, True, 0.993, 0.131151
2023/07/01 17:00:06.737, True, 1.348, 0.131762
2023/07/01 17:00:07.241, True, 0.995, 0.131456
2023/07/01 17:00:07.745, True, 0.995, 0.131075
2023/07/01 17:00:08.241, True, 1.011, 0.130465
2023/07/01 17:00:08.745, True, 0.995, 0.131685
2023/07/01 17:00:09.249, True, 0.995, 0.130770
2023/07/01 17:00:09.745, True, 1.012, 0.130999
2023/07/01 17:00:10.249, True, 0.994, 0.130007
2023/07/01 17:00:10.753, True, 0.995, 0.130159
2023/07/01 17:00:11.249, True, 1.011, 0.131380
2023/07/01 17:00:11.753, True, 0.995, 0.132906
2023/07/01 17:00:12.249, True, 1.012, 0.132219
2023/07/01 17:00:12.753, True, 0.993, 0.132067
2023/07/01 17:00:13.257, True, 0.995, 0.129778
2023/07/01 17:00:13.753, True, 1.011, 0.131991
2023/07/01 17:00:14.257, True, 0.995, 0.132219
2023/07/01 17:00:14.761, True, 0.995, 0.131533
2023/07/01 17:00:15.257, True, 1.011, 0.132067
2023/07/01 17:00:15.761, True, 0.995, 0.129854
2023/07/01 17:00:16.265, True, 0.995, 0.129244
2023/07/01 17:00:16.761, True, 1.011, 0.128939
2023/07/01 17:00:17.265, True, 0.995, 0.130999
2023/07/01 17:00:17.769, True, 0.995, 0.130999
2023/07/01 17:00:18.265, True, 1.011, 0.132906
2023/07/01 17:00:18.769, True, 0.995, 0.129854
2023/07/01 17:00:19.273, True, 0.995, 0.129778
2023/07/01 17:00:19.769, True, 1.011, 0.131304
2023/07/01 17:00:20.273, True, 0.995, 0.131762
2023/07/01 17:00:20.777, True, 0.995, 0.131456
2023/07/01 17:00:21.273, True, 1.011, 0.132219
2023/07/01 17:00:21.777, True, 0.995, 0.133516
2023/07/01 17:00:22.281, True, 0.995, 0.132448
2023/07/01 17:00:22.777, True, 1.011, 0.129854
2023/07/01 17:00:23.281, True, 0.996, 0.130236
2023/07/01 17:00:23.785, True, 0.994, 0.130465
2023/07/01 17:00:24.281, True, 1.011, 0.131762
2023/07/01 17:00:24.785, True, 0.994, 0.132296
2023/07/01 17:00:25.289, True, 0.995, 0.132601
2023/07/01 17:00:25.785, True, 1.011, 0.131151
2023/07/01 17:00:26.289, True, 0.995, 0.132372
2023/07/01 17:00:26.793, True, 0.995, 0.130770
2023/07/01 17:00:27.289, True, 1.012, 0.130236
2023/07/01 17:00:27.793, True, 0.994, 0.131609
2023/07/01 17:00:28.289, True, 1.011, 0.133745
2023/07/01 17:00:28.793, True, 0.995, 0.133211
2023/07/01 17:00:29.297, True, 0.995, 0.130770
2023/07/01 17:00:29.801, True, 0.663, 0.133211
2023/07/01 17:00:30.297, True, 1.012, 0.132677
2023/07/01 17:00:30.801, True, 0.994, 0.131151
2023/07/01 17:00:31.305, True, 0.995, 0.130846
2023/07/01 17:00:31.801, True, 1.011, 0.131533
2023/07/01 17:00:32.305, True, 0.995, 0.129625
2023/07/01 17:00:32.801, True, 1.011, 0.129397
2023/07/01 17:00:33.305, True, 1.326, 0.130083
2023/07/01 17:00:33.809, True, 0.995, 0.129854
2023/07/01 17:00:34.305, True, 1.011, 0.131914
2023/07/01 17:00:34.809, True, 0.995, 0.129168
2023/07/01 17:00:35.313, True, 0.996, 0.127565
2023/07/01 17:00:35.809, True, 1.009, 0.130312
2023/07/01 17:00:36.313, True, 0.995, 0.132372
2023/07/01 17:00:36.817, True, 0.995, 0.130541
2023/07/01 17:00:37.313, True, 1.011, 0.131456
2023/07/01 17:00:37.817, True, 0.995, 0.130312
2023/07/01 17:00:38.321, True, 0.995, 0.132601
2023/07/01 17:00:38.817, True, 0.674, 0.130846
2023/07/01 17:00:39.321, True, 0.996, 0.130846
2023/07/01 17:00:39.825, True, 0.994, 0.132601
2023/07/01 17:00:40.321, True, 1.348, 0.130999
2023/07/01 17:00:40.825, True, 0.664, 0.130236
2023/07/01 17:00:41.329, True, 0.994, 0.130846
2023/07/01 17:00:41.833, True, 1.327, 0.132219
2023/07/01 17:00:42.329, True, 1.011, 0.130694
2023/07/01 17:00:42.832, True, 0.995, 0.133440
2023/07/01 17:00:43.329, True, 1.010, 0.133898
2023/07/01 17:00:43.833, True, 0.995, 0.130388
2023/07/01 17:00:44.337, True, 0.995, 0.130159
2023/07/01 17:00:44.833, True, 1.011, 0.131685
2023/07/01 17:00:45.337, True, 0.995, 0.131151
2023/07/01 17:00:45.833, True, 1.011, 0.132601
2023/07/01 17:00:46.337, True, 1.326, 0.131228
2023/07/01 17:00:46.841, True, 0.995, 0.130770
2023/07/01 17:00:47.337, True, 1.011, 0.132296
2023/07/01 17:00:47.841, True, 0.995, 0.131075
2023/07/01 17:00:48.345, True, 0.995, 0.130922
2023/07/01 17:00:48.841, True, 1.011, 0.132067
2023/07/01 17:00:49.345, True, 0.995, 0.131456
2023/07/01 17:00:49.849, True, 0.995, 0.132525
2023/07/01 17:00:50.345, True, 1.350, 0.131609
2023/07/01 17:00:50.849, True, 0.995, 0.133135
2023/07/01 17:00:51.353, True, 0.993, 0.131380
2023/07/01 17:00:51.849, True, 1.012, 0.133669
2023/07/01 17:00:52.353, True, 0.993, 0.131228
2023/07/01 17:00:52.849, True, 1.011, 0.130083
2023/07/01 17:00:53.353, True, 0.996, 0.132525
2023/07/01 17:00:53.857, True, 0.993, 0.130922
2023/07/01 17:00:54.353, True, 1.011, 0.131609
2023/07/01 17:00:54.857, True, 0.995, 0.133974
2023/07/01 17:00:55.361, True, 0.995, 0.129778
2023/07/01 17:00:55.857, True, 1.011, 0.130770
2023/07/01 17:00:56.361, True, 0.995, 0.133822
2023/07/01 17:00:56.857, True, 1.011, 0.132753
2023/07/01 17:00:57.361, True, 0.995, 0.130617
2023/07/01 17:00:57.865, True, 1.327, 0.132372
2023/07/01 17:00:58.361, True, 1.011, 0.130388
2023/07/01 17:00:58.865, True, 0.995, 0.133059
2023/07/01 17:00:59.369, True, 0.995, 0.132372
2023/07/01 17:00:59.865, True, 1.011, 0.134966
2023/07/01 17:01:00.369, True, 0.995, 0.132448
2023/07/01 17:01:00.865, True, 1.011, 0.134356
2023/07/01 17:01:01.369, True, 0.995, 0.135271
2023/07/01 17:01:01.873, True, 0.995, 0.133364
2023/07/01 17:01:02.369, True, 1.011, 0.132906
2023/07/01 17:01:02.873, True, 0.995, 0.134585
2023/07/01 17:01:03.377, True, 0.995, 0.133669
2023/07/01 17:01:03.873, True, 1.011, 0.132372
2023/07/01 17:01:04.377, True, 0.996, 0.132982
2023/07/01 17:01:04.881, True, 0.995, 0.132906
2023/07/01 17:01:05.377, True, 1.010, 0.132830
2023/07/01 17:01:05.881, True, 0.995, 0.132601
2023/07/01 17:01:06.385, True, 0.995, 0.135500
2023/07/01 17:01:06.880, True, 1.348, 0.135424
2023/07/01 17:01:07.385, True, 0.995, 0.134890
2023/07/01 17:01:07.889, True, 0.663, 0.135195
2023/07/01 17:01:08.385, True, 1.011, 0.135195
2023/07/01 17:01:08.889, True, 0.995, 0.135576
2023/07/01 17:01:09.393, True, 0.996, 0.135653
2023/07/01 17:01:09.889, True, 1.346, 0.136034
2023/07/01 17:01:10.393, True, 0.995, 0.136034
2023/07/01 17:01:10.897, True, 0.995, 0.134585
2023/07/01 17:01:11.393, True, 1.011, 0.134356
2023/07/01 17:01:11.897, True, 0.995, 0.138323
2023/07/01 17:01:12.401, True, 1.326, 0.134661
2023/07/01 17:01:12.897, True, 1.011, 0.135882
2023/07/01 17:01:13.401, True, 0.995, 0.138170
2023/07/01 17:01:13.905, True, 0.995, 0.133898
2023/07/01 17:01:14.401, True, 1.010, 0.137102
2023/07/01 17:01:14.905, True, 0.995, 0.136873
2023/07/01 17:01:15.409, True, 0.995, 0.135271
2023/07/01 17:01:15.913, True, 1.326, 0.139544
2023/07/01 17:01:16.409, True, 1.011, 0.138781
2023/07/01 17:01:16.913, True, 0.663, 0.136263
2023/07/01 17:01:17.417, True, 1.326, 0.136873
2023/07/01 17:01:17.913, True, 0.674, 0.135653
2023/07/01 17:01:18.417, True, 0.995, 0.138094
2023/07/01 17:01:18.921, True, 1.326, 0.136873
2023/07/01 17:01:19.417, True, 0.674, 0.136492
2023/07/01 17:01:19.921, True, 0.995, 0.137713
2023/07/01 17:01:20.417, True, 1.011, 0.137865
2023/07/01 17:01:20.921, True, 0.995, 0.135424
2023/07/01 17:01:21.425, True, 1.326, 0.138170
2023/07/01 17:01:21.921, True, 1.012, 0.138399
2023/07/01 17:01:22.425, True, 0.994, 0.136339
2023/07/01 17:01:22.929, True, 0.995, 0.136110
2023/07/01 17:01:23.425, True, 1.011, 0.136568
2023/07/01 17:01:23.929, True, 0.995, 0.136034
2023/07/01 17:01:24.433, True, 0.995, 0.138476
2023/07/01 17:01:24.929, True, 1.011, 0.137255
2023/07/01 17:01:25.433, True, 0.995, 0.137560
2023/07/01 17:01:25.937, True, 1.326, 0.136797
2023/07/01 17:01:26.433, True, 1.011, 0.137942
2023/07/01 17:01:26.937, True, 0.995, 0.137713
2023/07/01 17:01:27.440, True, 0.995, 0.137942
2023/07/01 17:01:27.937, True, 1.011, 0.137713
2023/07/01 17:01:28.441, True, 0.995, 0.137026
2023/07/01 17:01:28.945, True, 0.994, 0.139925
2023/07/01 17:01:29.441, True, 1.011, 0.137255
2023/07/01 17:01:29.945, True, 0.995, 0.138170
2023/07/01 17:01:30.449, True, 0.995, 0.139620
2023/07/01 17:01:30.945, True, 1.011, 0.138323
2023/07/01 17:01:31.449, True, 0.995, 0.139162
2023/07/01 17:01:31.953, True, 0.995, 0.138018
2023/07/01 17:01:32.449, True, 1.011, 0.137560
2023/07/01 17:01:32.953, True, 0.663, 0.137331
2023/07/01 17:01:33.457, True, 0.995, 0.135348
2023/07/01 17:01:33.953, True, 1.011, 0.138476
2023/07/01 17:01:34.457, True, 0.996, 0.136034
2023/07/01 17:01:34.953, True, 1.346, 0.138705
2023/07/01 17:01:35.457, True, 0.995, 0.137026
2023/07/01 17:01:35.961, True, 0.996, 0.138552
2023/07/01 17:01:36.457, True, 1.011, 0.137407
2023/07/01 17:01:36.961, True, 0.995, 0.136797
2023/07/01 17:01:37.465, True, 0.994, 0.137713
2023/07/01 17:01:37.961, True, 1.011, 0.138781
2023/07/01 17:01:38.465, True, 0.994, 0.138170
2023/07/01 17:01:38.969, True, 0.995, 0.137179
2023/07/01 17:01:39.465, True, 0.674, 0.137942
2023/07/01 17:01:39.969, True, 0.995, 0.141527
2023/07/01 17:01:40.473, True, 0.993, 0.137331
2023/07/01 17:01:40.977, True, 0.996, 0.137560
2023/07/01 17:01:41.473, True, 1.011, 0.138552
2023/07/01 17:01:41.977, True, 0.993, 0.138323
2023/07/01 17:01:42.481, True, 0.995, 0.139544
2023/07/01 17:01:42.977, True, 1.013, 0.137942
2023/07/01 17:01:43.481, True, 0.993, 0.137255
2023/07/01 17:01:43.985, True, 1.326, 0.138323
2023/07/01 17:01:44.481, True, 1.012, 0.138170
2023/07/01 17:01:44.985, True, 0.994, 0.139773
2023/07/01 17:01:45.489, True, 0.997, 0.139315
2023/07/01 17:01:45.985, True, 1.009, 0.138476
2023/07/01 17:01:46.489, True, 0.995, 0.139086
2023/07/01 17:01:46.993, True, 0.995, 0.137255
2023/07/01 17:01:47.489, True, 1.012, 0.136645
2023/07/01 17:01:47.993, True, 0.994, 0.137636
2023/07/01 17:01:48.497, True, 0.995, 0.139544
2023/07/01 17:01:48.993, True, 1.011, 0.135424
2023/07/01 17:01:49.496, True, 0.996, 0.138933
2023/07/01 17:01:50.001, True, 0.994, 0.140383
2023/07/01 17:01:50.497, True, 1.011, 0.137942
2023/07/01 17:01:51.001, True, 0.995, 0.138094
2023/07/01 17:01:51.505, True, 1.326, 0.138705
2023/07/01 17:01:52.001, True, 1.011, 0.139696
2023/07/01 17:01:52.505, True, 0.995, 0.139010
2023/07/01 17:01:53.009, True, 0.996, 0.141299
2023/07/01 17:01:53.505, True, 1.010, 0.138399
2023/07/01 17:01:54.009, True, 0.996, 0.137560
2023/07/01 17:01:54.513, True, 0.993, 0.137102
2023/07/01 17:01:55.009, True, 1.011, 0.139239
2023/07/01 17:01:55.513, True, 0.995, 0.140383
2023/07/01 17:01:56.017, True, 0.995, 0.139391
2023/07/01 17:01:56.513, True, 1.011, 0.137865
2023/07/01 17:01:57.017, True, 0.995, 0.139162
2023/07/01 17:01:57.521, True, 0.995, 0.136721
2023/07/01 17:01:58.017, True, 1.011, 0.140764
2023/07/01 17:01:58.521, True, 0.995, 0.138552
2023/07/01 17:01:59.025, True, 0.995, 0.138552
2023/07/01 17:01:59.521, True, 1.011, 0.138399
2023/07/01 17:02:00.025, True, 0.996, 0.139696
2023/07/01 17:02:00.521, True, 1.009, 0.139162
2023/07/01 17:02:01.025, True, 0.995, 0.138018
2023/07/01 17:02:01.529, True, 0.995, 0.138781
2023/07/01 17:02:02.025, True, 1.011, 0.137484
2023/07/01 17:02:02.529, True, 0.995, 0.138094
2023/07/01 17:02:03.033, True, 0.996, 0.138933
2023/07/01 17:02:03.529, True, 1.010, 0.137942
2023/07/01 17:02:04.033, True, 0.995, 0.137865
2023/07/01 17:02:04.529, True, 1.011, 0.138857
2023/07/01 17:02:05.033, True, 0.995, 0.140002
2023/07/01 17:02:05.537, True, 0.995, 0.137255
2023/07/01 17:02:06.033, True, 1.011, 0.137255
2023/07/01 17:02:06.537, True, 0.995, 0.138552
2023/07/01 17:02:07.041, True, 0.996, 0.140383
2023/07/01 17:02:07.537, True, 1.009, 0.139010
2023/07/01 17:02:08.041, True, 0.995, 0.137331
2023/07/01 17:02:08.537, True, 1.011, 0.138628
2023/07/01 17:02:09.041, True, 1.326, 0.140841
2023/07/01 17:02:09.545, True, 0.995, 0.137560
2023/07/01 17:02:10.041, True, 1.012, 0.137560
2023/07/01 17:02:10.545, True, 0.993, 0.138247
2023/07/01 17:02:11.049, True, 0.995, 0.140536
2023/07/01 17:02:11.545, True, 1.011, 0.138094
2023/07/01 17:02:12.049, True, 0.996, 0.137789
2023/07/01 17:02:12.553, True, 0.994, 0.139849
2023/07/01 17:02:13.049, True, 1.011, 0.137255
2023/07/01 17:02:13.553, True, 0.995, 0.139010
2023/07/01 17:02:14.057, True, 0.995, 0.137331
2023/07/01 17:02:14.553, True, 1.011, 0.138323
2023/07/01 17:02:15.057, True, 0.995, 0.137331
2023/07/01 17:02:15.561, True, 0.995, 0.138552
2023/07/01 17:02:16.057, True, 0.674, 0.136492
2023/07/01 17:02:16.561, True, 0.996, 0.138781
2023/07/01 17:02:17.065, True, 0.994, 0.139086
2023/07/01 17:02:17.561, True, 1.011, 0.138170
2023/07/01 17:02:18.065, True, 0.995, 0.138628
2023/07/01 17:02:18.569, True, 1.326, 0.140078
2023/07/01 17:02:19.073, True, 0.995, 0.139315
2023/07/01 17:02:19.569, True, 1.011, 0.139162
2023/07/01 17:02:20.073, True, 0.995, 0.139162
2023/07/01 17:02:20.577, True, 0.995, 0.141299
2023/07/01 17:02:21.073, True, 1.011, 0.138705
2023/07/01 17:02:21.577, True, 0.995, 0.139467
2023/07/01 17:02:22.081, True, 1.326, 0.137789
2023/07/01 17:02:22.577, True, 1.011, 0.138018
2023/07/01 17:02:23.081, True, 0.663, 0.137789
2023/07/01 17:02:23.577, True, 1.011, 0.138476
2023/07/01 17:02:24.081, True, 0.996, 0.138399
2023/07/01 17:02:24.585, True, 1.325, 0.140536
2023/07/01 17:02:25.081, True, 0.674, 0.139010
2023/07/01 17:02:25.585, True, 0.995, 0.136721
2023/07/01 17:02:26.089, True, 0.995, 0.137713
2023/07/01 17:02:26.585, True, 1.348, 0.139315
2023/07/01 17:02:27.089, True, 0.995, 0.138018
2023/07/01 17:02:27.593, True, 0.663, 0.138323
2023/07/01 17:02:28.089, True, 1.011, 0.138399
2023/07/01 17:02:28.593, True, 1.326, 0.137484
2023/07/01 17:02:29.097, True, 0.995, 0.138781
2023/07/01 17:02:29.593, True, 1.011, 0.138857
2023/07/01 17:02:30.097, True, 0.663, 0.139315
2023/07/01 17:02:30.601, True, 1.326, 0.140078
2023/07/01 17:02:31.097, True, 1.011, 0.135729
2023/07/01 17:02:31.601, True, 0.995, 0.137713
2023/07/01 17:02:32.097, True, 1.011, 0.136568
2023/07/01 17:02:32.601, True, 0.995, 0.140230
2023/07/01 17:02:33.105, True, 0.995, 0.139773
2023/07/01 17:02:33.601, True, 1.011, 0.137179
2023/07/01 17:02:34.105, True, 0.995, 0.138476
2023/07/01 17:02:34.609, True, 0.995, 0.138323
2023/07/01 17:02:35.113, True, 0.994, 0.138323
2023/07/01 17:02:35.609, True, 1.011, 0.137331
2023/07/01 17:02:36.113, True, 0.995, 0.138170
2023/07/01 17:02:36.609, True, 1.011, 0.137407
2023/07/01 17:02:37.113, True, 0.995, 0.139239
2023/07/01 17:02:37.617, True, 0.995, 0.137407
2023/07/01 17:02:38.121, True, 0.996, 0.139010
2023/07/01 17:02:38.617, True, 1.010, 0.137713
2023/07/01 17:02:39.121, True, 0.995, 0.138628
2023/07/01 17:02:39.625, True, 0.663, 0.138170
2023/07/01 17:02:40.121, True, 1.011, 0.136416
2023/07/01 17:02:40.625, True, 0.995, 0.138552
2023/07/01 17:02:41.129, True, 0.995, 0.137789
2023/07/01 17:02:41.625, True, 1.011, 0.138552
2023/07/01 17:02:42.129, True, 0.996, 0.137942
2023/07/01 17:02:42.633, True, 0.662, 0.139010
2023/07/01 17:02:43.129, True, 1.348, 0.137560
2023/07/01 17:02:43.633, True, 0.995, 0.139391
2023/07/01 17:02:44.137, True, 0.995, 0.136568
2023/07/01 17:02:44.633, True, 1.011, 0.138705
2023/07/01 17:02:45.137, True, 0.995, 0.138170
2023/07/01 17:02:45.633, True, 1.011, 0.140078
2023/07/01 17:02:46.137, True, 0.995, 0.137789
2023/07/01 17:02:46.641, True, 0.995, 0.138323
2023/07/01 17:02:47.137, True, 1.011, 0.139315
2023/07/01 17:02:47.641, True, 0.996, 0.138628
2023/07/01 17:02:48.144, True, 0.994, 0.138781
2023/07/01 17:02:48.641, True, 1.011, 0.139086
2023/07/01 17:02:49.145, True, 0.995, 0.137407
2023/07/01 17:02:49.649, True, 1.326, 0.138476
2023/07/01 17:02:50.145, True, 1.011, 0.137560
2023/07/01 17:02:50.649, True, 0.995, 0.137560
2023/07/01 17:02:51.153, True, 0.995, 0.138018
2023/07/01 17:02:51.649, True, 1.011, 0.137789
2023/07/01 17:02:52.153, True, 0.995, 0.138018
2023/07/01 17:02:52.657, True, 0.995, 0.136034
2023/07/01 17:02:53.153, True, 1.011, 0.138323
2023/07/01 17:02:53.657, True, 1.326, 0.138018
2023/07/01 17:02:54.161, True, 0.995, 0.136110
2023/07/01 17:02:54.657, True, 1.011, 0.137713
2023/07/01 17:02:55.161, True, 0.995, 0.139162
2023/07/01 17:02:55.665, True, 0.995, 0.138857
2023/07/01 17:02:56.161, True, 1.011, 0.137484
2023/07/01 17:02:56.665, True, 0.995, 0.138857
2023/07/01 17:02:57.169, True, 0.995, 0.136873
2023/07/01 17:02:57.665, True, 1.011, 0.135348
2023/07/01 17:02:58.169, True, 0.995, 0.138399
2023/07/01 17:02:58.673, True, 0.995, 0.137942
2023/07/01 17:02:59.169, True, 1.011, 0.137865
2023/07/01 17:02:59.673, True, 0.994, 0.139010
2023/07/01 17:03:00.169, True, 1.011, 0.136950
2023/07/01 17:03:00.673, True, 0.995, 0.135729
2023/07/01 17:03:01.177, True, 0.995, 0.138476
2023/07/01 17:03:01.681, True, 0.996, 0.137865
2023/07/01 17:03:02.177, True, 1.010, 0.137331
2023/07/01 17:03:02.681, True, 0.994, 0.137942
2023/07/01 17:03:03.185, True, 0.996, 0.137560
2023/07/01 17:03:03.681, True, 1.010, 0.136950
2023/07/01 17:03:04.185, True, 0.995, 0.139010
2023/07/01 17:03:04.689, True, 1.327, 0.134585
2023/07/01 17:03:05.185, True, 1.011, 0.138552
2023/07/01 17:03:05.689, True, 0.995, 0.137255
2023/07/01 17:03:06.193, True, 0.996, 0.136721
2023/07/01 17:03:06.689, True, 1.009, 0.136110
2023/07/01 17:03:07.193, True, 0.995, 0.136339
2023/07/01 17:03:07.697, True, 0.995, 0.141299
2023/07/01 17:03:08.193, True, 1.011, 0.139315
2023/07/01 17:03:08.697, True, 0.995, 0.138323
2023/07/01 17:03:09.201, True, 0.995, 0.139467
2023/07/01 17:03:09.697, True, 1.011, 0.138018
2023/07/01 17:03:10.200, True, 0.995, 0.138476
2023/07/01 17:03:10.705, True, 0.996, 0.137865
2023/07/01 17:03:11.201, True, 1.011, 0.138476
2023/07/01 17:03:11.705, True, 0.994, 0.136873
2023/07/01 17:03:12.209, True, 0.663, 0.136416
2023/07/01 17:03:12.705, True, 1.011, 0.138399
2023/07/01 17:03:13.209, True, 0.995, 0.136568
2023/07/01 17:03:13.713, True, 0.994, 0.136110
2023/07/01 17:03:14.209, True, 1.011, 0.136873
2023/07/01 17:03:14.713, True, 0.995, 0.137713
2023/07/01 17:03:15.217, True, 0.995, 0.137636
2023/07/01 17:03:15.713, True, 1.011, 0.136950
2023/07/01 17:03:16.217, True, 0.995, 0.134890
2023/07/01 17:03:16.713, True, 1.012, 0.137484
2023/07/01 17:03:17.217, True, 0.994, 0.138018
2023/07/01 17:03:17.721, True, 0.995, 0.137179
2023/07/01 17:03:18.217, True, 1.011, 0.137026
2023/07/01 17:03:18.721, True, 0.995, 0.138476
2023/07/01 17:03:19.225, True, 0.994, 0.136568
2023/07/01 17:03:19.721, True, 1.012, 0.136645
2023/07/01 17:03:20.225, True, 0.995, 0.137560
2023/07/01 17:03:20.729, True, 0.993, 0.137789
2023/07/01 17:03:21.225, True, 1.011, 0.136645
2023/07/01 17:03:21.729, True, 0.996, 0.138933
2023/07/01 17:03:22.233, True, 1.327, 0.136187
2023/07/01 17:03:22.729, True, 1.011, 0.136339
2023/07/01 17:03:23.233, True, 0.993, 0.137789
2023/07/01 17:03:23.737, True, 0.996, 0.139086
2023/07/01 17:03:24.233, True, 1.009, 0.136110
2023/07/01 17:03:24.737, True, 0.995, 0.137942
2023/07/01 17:03:25.241, True, 0.995, 0.139391
2023/07/01 17:03:25.737, True, 1.011, 0.136721
2023/07/01 17:03:26.241, True, 0.995, 0.136721
2023/07/01 17:03:26.745, True, 0.995, 0.137179
2023/07/01 17:03:27.241, True, 1.011, 0.137560
2023/07/01 17:03:27.745, True, 0.994, 0.137789
2023/07/01 17:03:28.249, True, 0.995, 0.138781
2023/07/01 17:03:28.745, True, 1.011, 0.139925
2023/07/01 17:03:29.249, True, 0.995, 0.137484
2023/07/01 17:03:29.753, True, 0.995, 0.135882
2023/07/01 17:03:30.249, True, 1.011, 0.137026
2023/07/01 17:03:30.753, True, 0.995, 0.139773
2023/07/01 17:03:31.257, True, 0.995, 0.137026
2023/07/01 17:03:31.761, True, 1.327, 0.138094
2023/07/01 17:03:32.257, True, 1.010, 0.137560
2023/07/01 17:03:32.761, True, 0.995, 0.136416
2023/07/01 17:03:33.266, True, 0.995, 0.136721
2023/07/01 17:03:33.762, True, 1.011, 0.137789
2023/07/01 17:03:34.265, True, 0.995, 0.136416
2023/07/01 17:03:34.769, True, 0.995, 0.136416
2023/07/01 17:03:35.265, True, 1.011, 0.138552
2023/07/01 17:03:35.769, True, 0.995, 0.136721
2023/07/01 17:03:36.273, True, 0.995, 0.137865
2023/07/01 17:03:36.777, True, 0.995, 0.137331
2023/07/01 17:03:37.273, True, 0.674, 0.138170
2023/07/01 17:03:37.777, True, 1.326, 0.136187
2023/07/01 17:03:38.281, True, 0.995, 0.136950
2023/07/01 17:03:38.777, True, 0.674, 0.138399
2023/07/01 17:03:39.281, True, 0.994, 0.137407
2023/07/01 17:03:39.785, True, 1.326, 0.137713
2023/07/01 17:03:40.281, True, 0.674, 0.136187
2023/07/01 17:03:40.785, True, 0.995, 0.137102
2023/07/01 17:03:41.289, True, 0.995, 0.137179
2023/07/01 17:03:41.785, True, 1.011, 0.138705
2023/07/01 17:03:42.289, True, 0.995, 0.138552
2023/07/01 17:03:42.793, True, 0.995, 0.135271
2023/07/01 17:03:43.289, True, 1.011, 0.137865
2023/07/01 17:03:43.793, True, 0.995, 0.136645
2023/07/01 17:03:44.297, True, 0.995, 0.136797
2023/07/01 17:03:44.793, True, 1.011, 0.137331
2023/07/01 17:03:45.297, True, 0.995, 0.136645
2023/07/01 17:03:45.801, True, 0.663, 0.136339
2023/07/01 17:03:46.305, True, 0.995, 0.136492
2023/07/01 17:03:46.801, True, 1.011, 0.137942
2023/07/01 17:03:47.305, True, 0.995, 0.135271
2023/07/01 17:03:47.802, True, 1.011, 0.137636
2023/07/01 17:03:48.305, True, 0.995, 0.135195
2023/07/01 17:03:48.809, True, 1.326, 0.137636
2023/07/01 17:03:49.305, True, 1.011, 0.138781
2023/07/01 17:03:49.809, True, 0.995, 0.137713
2023/07/01 17:03:50.313, True, 0.995, 0.138247
2023/07/01 17:03:50.817, True, 0.995, 0.137484
2023/07/01 17:03:51.313, True, 1.011, 0.139086
2023/07/01 17:03:51.817, True, 0.995, 0.137331
2023/07/01 17:03:52.313, True, 1.013, 0.136110
2023/07/01 17:03:52.817, True, 1.324, 0.137331
2023/07/01 17:03:53.321, True, 0.995, 0.136568
2023/07/01 17:03:53.817, True, 1.011, 0.137865
2023/07/01 17:03:54.321, True, 0.995, 0.139162
2023/07/01 17:03:54.825, True, 0.995, 0.138094
2023/07/01 17:03:55.321, True, 1.011, 0.137789
2023/07/01 17:03:55.825, True, 0.995, 0.135500
2023/07/01 17:03:56.329, True, 0.995, 0.138018
2023/07/01 17:03:56.825, True, 1.011, 0.136187
2023/07/01 17:03:57.330, True, 0.995, 0.137407
2023/07/01 17:03:57.833, True, 0.995, 0.135576
2023/07/01 17:03:58.329, True, 0.674, 0.136568
2023/07/01 17:03:58.833, True, 0.995, 0.136797
2023/07/01 17:03:59.337, True, 0.995, 0.137026
2023/07/01 17:03:59.833, True, 1.011, 0.134432
2023/07/01 17:04:00.337, True, 1.326, 0.136110
2023/07/01 17:04:00.841, True, 0.995, 0.137255
2023/07/01 17:04:01.338, True, 1.011, 0.137026
2023/07/01 17:04:01.841, True, 0.996, 0.135424
2023/07/01 17:04:02.337, True, 1.012, 0.136721
2023/07/01 17:04:02.841, True, 0.993, 0.138399
2023/07/01 17:04:03.345, True, 0.663, 0.136263
2023/07/01 17:04:03.849, True, 0.995, 0.137026
2023/07/01 17:04:04.345, True, 1.011, 0.135119
2023/07/01 17:04:04.849, True, 0.995, 0.137102
2023/07/01 17:04:05.353, True, 0.995, 0.135653
2023/07/01 17:04:05.850, True, 1.011, 0.136187
2023/07/01 17:04:06.353, True, 1.326, 0.135424
2023/07/01 17:04:06.857, True, 0.663, 0.137407
2023/07/01 17:04:07.353, True, 1.013, 0.134432
2023/07/01 17:04:07.858, True, 1.324, 0.134966
2023/07/01 17:04:08.361, True, 0.995, 0.134890
2023/07/01 17:04:08.858, True, 0.674, 0.135805
2023/07/01 17:04:09.362, True, 0.996, 0.134890
2023/07/01 17:04:09.857, True, 1.010, 0.136034
2023/07/01 17:04:10.361, True, 0.995, 0.137636
2023/07/01 17:04:10.865, True, 1.326, 0.134737
2023/07/01 17:04:11.361, True, 1.011, 0.134279
2023/07/01 17:04:11.865, True, 0.996, 0.137179
2023/07/01 17:04:12.369, True, 0.662, 0.136645
2023/07/01 17:04:12.865, True, 1.011, 0.135805
2023/07/01 17:04:13.369, True, 1.327, 0.137102
2023/07/01 17:04:13.865, True, 1.011, 0.136492
2023/07/01 17:04:14.369, True, 0.995, 0.136187
2023/07/01 17:04:14.873, True, 0.663, 0.136492